Вернуться в каталог

TITAN 3C TRANSTAGE DEB

АктивенHEO
NORAD 28819·DEBRIS·🇺🇸 United States

Запущен Dec 21, 1965 с Cape Canaveral Space Force Station

Loading…

Ближайшие Пролёты (ближайшие 24 часа)

TLE

СвежийSource: Space-Track

Эпоха: Sep 11, 2026, 01:34 UTC

1 28819U 65108CG  26254.06587306  .00000207  00000-0  36746-2 0  9999
2 28819  26.7867 149.3290 6734452 120.4432   2.2559  2.70723388219376

Отслеживайте TITAN 3C TRANSTAGE DEB в реальном времени с AllMySat

Download on the App Store